Location: Oso Ridge
(35.0450°N, 108.0864°W)
Time: 06:18:56
(UTC-06:00)

Amateur Radio Satellites - All Passes

Search period start: 05 September 2015 05:48
Search period end: 06 September 2015 05:48
Location: Oso Ridge, 35.0450°N, 108.0864°W

Satellite Date Start Highest point End Downlink Frequencies (MHz)
Time Altitude Azimuth
Cosmos 2499 05 Sep 05:58:39 06:05:55 28° 290° (WNW) 06:13:07 435.465 / 435.565
CUBESAT XI-V 05 Sep 05:59:19 06:03:23 33° 73° (ENE) 06:07:32 437.345
STRAND 1 05 Sep 06:10:55 06:12:53 13° 65° (ENE) 06:15:09 437.568
VERMONT LUNAR 05 Sep 06:18:43 06:21:40 61° 19° (NNE) 06:24:36 437.305
ISS 05 Sep 06:39:18 06:42:11 30° 132° (SE) 06:45:07 145.825
AO-7 05 Sep 06:48:52 06:55:44 29° 299° (WNW) 07:02:22 29.400- 29.500
PHONESAT 2.4 05 Sep 06:58:03 07:01:09 31° 2° (N) 07:04:15 2401.200-2431.200
Cubesat XI-IV 05 Sep 07:00:33 07:05:28 38° 98° (E) 07:10:27 437.490
PRISM 05 Sep 07:30:12 07:34:11 54° 75° (ENE) 07:38:10 437.425
CUBESAT XI-V 05 Sep 07:37:34 07:40:57 19° 267° (W) 07:44:10 437.345
CUTE-I 05 Sep 07:43:41 07:49:02 80° 285° (WNW) 07:54:22 437.470
STRAND 1 05 Sep 07:46:31 07:51:35 68° 258° (WSW) 07:56:40 437.568
VERMONT LUNAR 05 Sep 07:55:33 07:57:52 20° 213° (SSW) 08:00:08 437.305
YUBILEINY 05 Sep 08:04:45 08:13:20 54° 78° (ENE) 08:21:54 435.215
AIST 1 05 Sep 08:12:36 08:16:50 78° 276° (W) 08:21:07
DOVE 4 05 Sep 08:15:05 08:17:22 13° 88° (E) 08:19:57 437.250
ISS 05 Sep 08:15:58 08:18:38 22° 327° (NNW) 08:21:16 145.825
BRITE-PL 05 Sep 08:19:48 08:25:14 47° 98° (E) 08:30:43 437.365/2234.400
GOMX 1 05 Sep 08:23:55 08:28:40 30° 94° (E) 08:33:25 467.674
PHONESAT 2.4 05 Sep 08:35:58 08:39:22 63° 20° (NNE) 08:42:44 2401.200-2431.200
HO-68 05 Sep 08:36:47 08:41:54 21° 92° (E) 08:47:18 435.675
CUTE 1.7 + AOD 2 05 Sep 08:37:46 08:38:57 11° 90° (E) 08:40:24 437.475
Cubesat XI-IV 05 Sep 08:41:11 08:45:22 23° 292° (WNW) 08:49:25 437.490
SO-50 05 Sep 08:48:54 08:53:05 27° 51° (NE) 08:57:13 436.795
Cosmos 2491 05 Sep 08:49:48 08:58:16 61° 92° (E) 09:06:48 435.465 / 435.565
CANX-2 05 Sep 08:51:01 08:54:01 19° 93° (E) 08:57:07 2200.000
SEEDS 05 Sep 09:03:28 09:06:21 19° 93° (E) 09:09:22 437.485
COMPASS 1 05 Sep 09:16:46 09:19:49 20° 94° (E) 09:22:58 437.405
AAUSAT CUBESAT 2 05 Sep 09:22:30 09:25:29 20° 94° (E) 09:28:34 437.432
Oscar 11 05 Sep 09:37:38 09:39:21 12° 90° (E) 09:41:18 145.826/435.025
PCSat 05 Sep 09:47:18 09:51:28 23° 52° (NE) 09:55:44 145.827
UNISAT 6 05 Sep 09:49:02 09:51:16 14° 67° (ENE) 09:53:45 437.425
DOVE 4 05 Sep 09:50:22 09:55:39 63° 284° (WNW) 10:00:44 437.250
CUSAT 1 05 Sep 09:55:18 10:01:58 28° 69° (ENE) 10:08:47 437.405
CINEMA 3 05 Sep 09:59:01 10:03:57 69° 101° (ESE) 10:08:40 145.822/145.860
BRITE-PL 05 Sep 09:59:08 10:03:25 22° 291° (WNW) 10:07:34 437.365/2234.400
GOMX 1 05 Sep 10:01:52 10:06:43 32° 289° (WNW) 10:11:25 467.674
YUBILEINY 05 Sep 10:02:29 10:09:45 28° 274° (W) 10:16:40 435.215
CUTE 1.7 + AOD 2 05 Sep 10:11:08 10:15:11 47° 285° (WNW) 10:19:12 437.475
Cosmos 2504 05 Sep 10:13:01 10:20:59 48° 77° (ENE) 10:28:28 435.465 / 435.565
TIGRISAT 05 Sep 10:13:49 10:17:33 25° 70° (ENE) 10:21:23 435.000
PHONESAT 2.4 05 Sep 10:14:13 10:17:04 25° 213° (SSW) 10:19:52 2401.200-2431.200
JUGNU 05 Sep 10:15:32 10:16:07 10° 165° (SSE) 10:16:50 437.505
HO-68 05 Sep 10:23:03 10:30:09 61° 289° (WNW) 10:37:10 435.675
CANX-2 05 Sep 10:26:20 10:29:58 28° 288° (WNW) 10:33:31 2200.000
SO-50 05 Sep 10:29:17 10:33:38 32° 248° (WSW) 10:37:49 436.795
ZACube-1 05 Sep 10:30:13 10:34:13 34° 97° (E) 10:38:10 437.345
QB50P1 05 Sep 10:31:19 10:32:49 12° 67° (ENE) 10:34:34 145.935-145.965
ANTELSAT 05 Sep 10:32:23 10:36:46 40° 73° (ENE) 10:41:12 437.575/2403.000
FUNcube-1 05 Sep 10:33:10 10:37:13 36° 97° (E) 10:41:11 145.935
HUMSAT D 05 Sep 10:34:34 10:36:20 13° 90° (E) 10:38:18 437.325/437.525
SEEDS 05 Sep 10:38:34 10:42:12 28° 287° (WNW) 10:45:44 437.485
AUBIESAT-1 05 Sep 10:39:47 10:44:13 42° 69° (ENE) 10:48:34 437.475
DELFI C3 05 Sep 10:44:45 10:48:38 51° 99° (E) 10:52:30 145.870
UWE-3 05 Sep 10:48:20 10:52:52 80° 101° (ESE) 10:57:14 435.000/436.395/437.385
Cosmos 2491 05 Sep 10:48:46 10:55:47 25° 291° (WNW) 11:02:30 435.465 / 435.565
M-CUBED/EXP-1 PRIME 05 Sep 10:49:50 10:54:35 65° 71° (ENE) 10:59:15 437.505
COMPASS 1 05 Sep 10:51:59 10:55:27 25° 288° (WNW) 10:58:51 437.405
CUBEBUG 2 05 Sep 10:52:11 10:56:47 71° 284° (WNW) 11:01:12 437.445
AAUSAT CUBESAT 2 05 Sep 10:57:36 11:01:04 26° 288° (WNW) 11:04:28 437.432
DANDE 05 Sep 10:59:23 11:07:23 57° 78° (ENE) 11:15:43 436.750
Oscar 11 05 Sep 11:11:42 11:15:50 45° 286° (WNW) 11:19:54 145.826/435.025
DX 1 05 Sep 11:13:05 11:16:17 20° 94° (E) 11:19:36 434.975-435.025
BUGSAT 1 05 Sep 11:14:41 11:17:45 21° 70° (ENE) 11:20:57 437.445
UKube-1 05 Sep 11:17:32 11:20:40 20° 94° (E) 11:23:56 .
UNISAT 6 05 Sep 11:23:01 11:27:37 54° 261° (W) 11:32:15 437.425
DUCHIFAT 1 05 Sep 11:28:43 11:32:51 55° 75° (ENE) 11:37:01 145.980
PCSat 05 Sep 11:29:58 11:35:08 46° 249° (WSW) 11:40:15 145.827
POLYITAN 1 05 Sep 11:32:25 11:36:38 66° 76° (ENE) 11:40:55 437.675
POPSAT HIP 1 05 Sep 11:32:56 11:37:08 65° 75° (ENE) 11:41:24 437.405
CUSAT 1 05 Sep 11:36:57 11:45:00 61° 266° (W) 11:52:45 437.405
CINEMA 3 05 Sep 11:38:44 11:40:32 12° 295° (WNW) 11:42:02 145.822/145.860
CUBEBUG 1 05 Sep 11:40:58 11:43:37 16° 92° (E) 11:46:28 437.445
NANOSAT C BR1 05 Sep 11:48:04 11:52:19 83° 259° (W) 11:56:36 145.865
TIGRISAT 05 Sep 11:50:05 11:54:09 29° 264° (W) 11:58:13 435.000
QB50P2 05 Sep 11:51:15 11:55:30 71° 258° (WSW) 11:59:48 145.880/145.840
AISAT 05 Sep 11:55:18 11:59:33 41° 98° (E) 12:03:48 437.250
JUGNU 05 Sep 12:00:44 12:04:26 17° 174° (S) 12:08:09 437.505
ESTCUBE 1 05 Sep 12:01:17 12:05:23 34° 97° (E) 12:09:32 437.505/2401.250
QB50P1 05 Sep 12:04:08 12:08:16 50° 261° (W) 12:12:27 145.935-145.965
Cosmos 2504 05 Sep 12:05:51 12:12:50 30° 275° (W) 12:19:14 435.465 / 435.565
ZACube-1 05 Sep 12:07:17 12:10:19 18° 291° (WNW) 12:13:10 437.345
HUMSAT D 05 Sep 12:08:22 12:12:20 41° 286° (WNW) 12:16:12 437.325/437.525
FUNcube-1 05 Sep 12:10:20 12:13:15 17° 291° (WNW) 12:15:58 145.935
ANTELSAT 05 Sep 12:10:34 12:13:43 17° 268° (W) 12:16:42 437.575/2403.000
AUBIESAT-1 05 Sep 12:15:44 12:19:01 18° 262° (W) 12:22:05 437.475
50 SAT 05 Sep 12:21:18 12:25:08 72° 284° (WNW) 12:28:55 437.505
VELOX 1 05 Sep 12:21:47 12:26:16 82° 102° (ESE) 12:30:45 145.980
DELFI C3 05 Sep 12:22:47 12:23:17 10° 292° (WNW) 12:23:32 145.870
M-CUBED/EXP-1 PRIME 05 Sep 12:27:52 12:29:43 12° 265° (W) 12:31:14 437.505
DANDE 05 Sep 12:43:14 12:50:13 30° 271° (W) 12:57:07 436.750
DX 1 05 Sep 12:48:43 12:52:34 30° 288° (WNW) 12:56:21 434.975-435.025
BUGSAT 1 05 Sep 12:49:43 12:53:06 24° 265° (W) 12:56:27 437.445
SPROUT 05 Sep 12:51:09 12:54:57 30° 96° (E) 12:58:46 437.525
UKube-1 05 Sep 12:53:02 12:56:50 29° 289° (WNW) 13:00:33 .
GONETS M04 05 Sep 12:53:51 13:00:36 25° 69° (ENE) 13:07:41
Oscar 19 05 Sep 13:09:52 13:14:16 30° 70° (ENE) 13:18:48 437.125/150
ISS 05 Sep 13:10:09 13:11:45 13° 26° (NNE) 13:13:23 145.825
CUBEBUG 1 05 Sep 13:16:01 13:20:08 38° 287° (WNW) 13:24:13 437.445
SRMSAT 05 Sep 13:20:52 13:24:09 15° 171° (S) 13:27:29 437.500
BEESAT 3 05 Sep 13:32:53 13:36:36 37° 115° (ESE) 13:40:24 437.485
AISAT 05 Sep 13:32:59 13:35:48 16° 292° (WNW) 13:38:26 437.250
TISAT 1 05 Sep 13:34:01 13:38:11 52° 100° (E) 13:42:21 437.305
ESTCUBE 1 05 Sep 13:38:49 13:42:02 19° 291° (WNW) 13:45:05 437.505/2401.250
JAS-2 05 Sep 13:41:25 13:45:22 16° 61° (ENE) 13:49:47 435.910
JUGNU 05 Sep 13:48:56 13:52:46 17° 184° (S) 13:56:33 437.505
BEESAT 2 05 Sep 13:52:41 13:56:35 47° 116° (ESE) 14:00:34 435.950
Cosmos 2499 05 Sep 14:02:03 14:06:34 16° 63° (ENE) 14:11:26 435.465 / 435.565
SWISSCUBE 05 Sep 14:04:14 14:07:29 19° 93° (E) 14:10:54 437.505
AO-7 05 Sep 14:05:41 14:07:07 11° 51° (NE) 14:09:10 29.400- 29.500
ITAMSAT 1 05 Sep 14:20:05 14:24:42 35° 71° (ENE) 14:29:24 435.822/435.867
SPROUT 05 Sep 14:27:38 14:30:51 20° 290° (WNW) 14:33:55 437.525
Gurwin Techsat 1B 05 Sep 14:32:16 14:37:26 58° 74° (ENE) 14:42:40 435.225
ITUPSAT 1 05 Sep 14:44:23 14:48:58 46° 99° (E) 14:53:34 437.325
ISS 05 Sep 14:45:18 14:48:32 81° 227° (SW) 14:51:47 145.825
Oscar 19 05 Sep 14:49:11 14:53:36 28° 265° (W) 14:57:58 437.125/150
GONETS M04 05 Sep 14:49:28 14:58:09 63° 268° (W) 15:06:47
AIST 2 05 Sep 15:05:04 15:09:12 55° 116° (ESE) 15:13:22 435.215
SRMSAT 05 Sep 15:08:44 15:12:37 18° 181° (S) 15:16:29 437.500
HORYU 2 05 Sep 15:10:04 15:11:03 11° 66° (ENE) 15:12:20 437.375
BEESAT 3 05 Sep 15:11:53 15:14:41 17° 311° (NW) 15:17:24 437.485
TISAT 1 05 Sep 15:11:54 15:13:31 12° 293° (WNW) 15:14:55 437.305
BEESAT 05 Sep 15:14:00 15:18:46 80° 286° (WNW) 15:23:32 436.000
JAS-2 05 Sep 15:21:41 15:29:25 81° 76° (ENE) 15:37:18 435.910
RS-15 05 Sep 15:29:14 15:39:52 65° 114° (ESE) 15:50:56 29.354- 29.394
BEESAT 2 05 Sep 15:32:29 15:34:55 15° 312° (NW) 15:37:14 435.950
JUGNU 05 Sep 15:39:05 15:41:03 12° 194° (SSW) 15:42:55 437.505
SWISSCUBE 05 Sep 15:41:06 15:45:29 37° 288° (WNW) 15:49:49 437.505
AO-7 05 Sep 15:50:20 15:58:27 60° 69° (ENE) 16:06:36 29.400- 29.500
Cosmos 2499 05 Sep 15:52:39 16:01:10 87° 264° (W) 16:09:00 435.465 / 435.565
ITAMSAT 1 05 Sep 16:00:09 16:04:18 23° 266° (W) 16:08:19 435.822/435.867
STARS 05 Sep 16:03:59 16:07:52 30° 97° (E) 16:11:46 437.465
Gurwin Techsat 1B 05 Sep 16:14:56 16:17:53 14° 270° (W) 16:20:32 435.225
ITUPSAT 1 05 Sep 16:23:34 16:26:31 16° 293° (WNW) 16:29:17 437.325
KKS-1 05 Sep 16:35:49 16:40:17 64° 285° (WNW) 16:44:42 437.445
HORYU 2 05 Sep 16:42:46 16:47:14 63° 260° (W) 16:51:41 437.375
AIST 2 05 Sep 16:45:49 16:48:08 14° 313° (NW) 16:50:19 435.215
SRMSAT 05 Sep 16:58:12 17:01:05 14° 191° (S) 17:03:53 437.500
JAS-2 05 Sep 17:10:06 17:15:17 18° 272° (W) 17:20:02 435.910
CUTE-I 05 Sep 17:25:37 17:28:03 14° 65° (ENE) 17:30:46 437.470
MOZHAYETS 4 05 Sep 17:26:55 17:31:27 63° 100° (E) 17:35:57
O/OREOS (USA 219) 05 Sep 17:38:33 17:42:08 24° 103° (ESE) 17:45:52 437.305
STARS 05 Sep 17:40:46 17:44:09 21° 290° (WNW) 17:47:24 437.465
RS-15 05 Sep 17:43:10 17:53:04 36° 317° (NW) 18:03:09 29.354- 29.394
AO-7 05 Sep 17:44:51 17:51:43 27° 265° (W) 17:58:18 29.400- 29.500
Cosmos 2499 05 Sep 17:49:17 17:53:07 13° 281° (W) 17:56:13 435.465 / 435.565
CUBESAT XI-V 05 Sep 18:01:42 18:02:33 11° 89° (E) 18:03:44 437.345
Cubesat XI-IV 05 Sep 18:19:20 18:24:23 46° 73° (ENE) 18:29:28 437.490
AIST 1 05 Sep 18:23:54 18:26:53 18° 74° (ENE) 18:30:01
CUTE-I 05 Sep 19:02:21 19:07:37 67° 258° (WSW) 19:12:55 437.470
Cosmos 2491 05 Sep 19:05:01 19:11:44 25° 69° (ENE) 19:18:47 435.465 / 435.565
HO-68 05 Sep 19:05:36 19:07:44 12° 57° (ENE) 19:10:21 435.675
MOZHAYETS 4 05 Sep 19:06:53 19:08:11 11° 294° (WNW) 19:09:13
O/OREOS (USA 219) 05 Sep 19:17:37 19:21:29 26° 298° (WNW) 19:25:20 437.305
BRITE-PL 05 Sep 19:28:05 19:32:02 32° 71° (ENE) 19:36:20 437.365/2234.400
GOMX 1 05 Sep 19:29:38 19:32:56 20° 68° (ENE) 19:36:32 467.674
CUBESAT XI-V 05 Sep 19:35:50 19:40:27 61° 284° (WNW) 19:45:04 437.345
CANX-2 05 Sep 19:43:49 19:43:54 10° 67° (ENE) 19:44:14 2200.000
STRAND 1 05 Sep 20:00:20 20:05:19 53° 100° (E) 20:10:19 437.568
AIST 1 05 Sep 20:00:48 20:04:36 29° 269° (W) 20:08:22
Cubesat XI-IV 05 Sep 20:01:03 20:04:46 18° 268° (W) 20:08:16 437.490
RS-15 05 Sep 20:05:26 20:10:34 13° 349° (N) 20:15:32 29.354- 29.394
HO-68 05 Sep 20:47:18 20:54:25 73° 73° (ENE) 21:01:36 435.675
PRISM 05 Sep 20:50:37 20:54:39 55° 285° (WNW) 20:58:42 437.425
DOVE 4 05 Sep 20:52:09 20:56:50 90° 256° (WSW) 21:01:52 437.250
CINEMA 3 05 Sep 20:57:01 21:01:29 43° 73° (ENE) 21:06:10 145.822/145.860
CUTE 1.7 + AOD 2 05 Sep 21:00:09 21:04:25 77° 77° (ENE) 21:08:42 437.475
Cosmos 2491 05 Sep 21:00:40 21:09:17 62° 268° (W) 21:17:52 435.465 / 435.565
YUBILEINY 05 Sep 21:00:57 21:09:37 70° 93° (E) 21:18:24 435.215
GOMX 1 05 Sep 21:06:33 21:10:47 36° 264° (W) 21:15:17 467.674
BRITE-PL 05 Sep 21:07:24 21:10:43 20° 269° (W) 21:14:05 437.365/2234.400
CANX-2 05 Sep 21:15:07 21:19:21 61° 260° (W) 21:23:36 2200.000
ZACube-1 05 Sep 21:23:18 21:26:35 20° 70° (ENE) 21:30:01 437.345
FUNcube-1 05 Sep 21:25:59 21:29:19 21° 70° (ENE) 21:32:48 145.935
SEEDS 05 Sep 21:26:26 21:30:38 64° 259° (W) 21:34:52 437.485
DELFI C3 05 Sep 21:29:14 21:32:11 20° 71° (ENE) 21:35:15 145.870
COMPASS 1 05 Sep 21:38:56 21:43:05 59° 260° (W) 21:47:13 437.405
STRAND 1 05 Sep 21:40:58 21:44:08 16° 294° (WNW) 21:47:06 437.568
UWE-3 05 Sep 21:41:43 21:46:05 43° 74° (ENE) 21:50:33 435.000/436.395/437.385
AAUSAT CUBESAT 2 05 Sep 21:44:05 21:48:14 61° 260° (W) 21:52:22 437.432
CUBEBUG 2 05 Sep 21:46:22 21:51:00 65° 75° (ENE) 21:55:44 437.445
BEESAT 3 05 Sep 21:57:07 21:57:07 10° 44° (NE) 21:57:21 437.485
Oscar 11 05 Sep 22:02:40 22:07:00 89° 93° (E) 22:11:23 145.826/435.025
DX 1 05 Sep 22:07:13 22:08:51 12° 67° (ENE) 22:10:45 434.975-435.025
UKube-1 05 Sep 22:10:54 22:12:26 12° 67° (ENE) 22:14:11 .
BEESAT 2 05 Sep 22:16:15 22:17:52 12° 46° (NE) 22:19:40 435.950
RS-15 05 Sep 22:22:26 22:29:47 19° 26° (NNE) 22:37:47 29.354- 29.394
ANTELSAT 05 Sep 22:31:15 22:31:20 10° 88° (E) 22:31:45 437.575/2403.000
CINEMA 3 05 Sep 22:35:44 22:38:56 17° 270° (W) 22:42:00 145.822/145.860
HO-68 05 Sep 22:38:14 22:42:54 17° 270° (W) 22:47:09 435.675
Cosmos 2504 05 Sep 22:38:22 22:45:44 40° 88° (E) 22:53:34 435.465 / 435.565
AISAT 05 Sep 22:50:16 22:53:49 25° 71° (ENE) 22:57:30 437.250
HUMSAT D 05 Sep 22:55:58 23:00:18 86° 78° (ENE) 23:04:38 437.325/437.525
ESTCUBE 1 05 Sep 22:58:20 23:01:44 22° 70° (ENE) 23:05:14 437.505/2401.250
ZACube-1 05 Sep 22:58:34 23:02:43 33° 264° (W) 23:06:52 437.345
CUSAT 1 05 Sep 22:59:34 23:02:28 18° 84° (E) 23:06:07 437.405
YUBILEINY 05 Sep 23:00:40 23:07:21 22° 293° (WNW) 23:13:40 435.215
SO-50 05 Sep 23:01:11 23:04:11 17° 110° (ESE) 23:07:25 436.795
50 SAT 05 Sep 23:01:16 23:04:53 36° 74° (ENE) 23:08:32 437.505
FUNcube-1 05 Sep 23:01:20 23:05:26 32° 264° (W) 23:09:32 145.935
DELFI C3 05 Sep 23:03:44 23:07:08 25° 265° (W) 23:10:26 145.870
VELOX 1 05 Sep 23:16:03 23:20:15 47° 74° (ENE) 23:24:31 145.980
UNISAT 6 05 Sep 23:18:34 23:22:47 39° 98° (E) 23:26:54 437.425
DUCHIFAT 1 05 Sep 23:18:55 23:20:09 11° 90° (E) 23:21:40 145.980
UWE-3 05 Sep 23:19:58 23:22:51 16° 269° (W) 23:25:33 435.000/436.395/437.385
POLYITAN 1 05 Sep 23:22:38 23:24:48 14° 91° (E) 23:27:11 437.675
POPSAT HIP 1 05 Sep 23:22:58 23:25:03 14° 91° (E) 23:27:22 437.405
CUBEBUG 2 05 Sep 23:27:13 23:28:12 10° 272° (W) 23:28:51 437.445
AIST 2 05 Sep 23:30:55 23:33:19 15° 48° (NE) 23:35:51 435.215
BEESAT 3 05 Sep 23:31:35 23:35:36 73° 243° (WSW) 23:39:32 437.485
NANOSAT C BR1 05 Sep 23:36:58 23:40:06 20° 94° (E) 23:43:19 145.865
QB50P2 05 Sep 23:40:22 23:43:46 23° 95° (E) 23:47:16 145.880/145.840
DX 1 05 Sep 23:40:29 23:44:42 51° 260° (W) 23:48:57 434.975-435.025
SPROUT 05 Sep 23:43:09 23:45:43 16° 69° (ENE) 23:48:29 437.525
UKube-1 05 Sep 23:43:56 23:48:08 52° 260° (W) 23:52:22 .
TIGRISAT 05 Sep 23:44:32 23:49:03 79° 102° (ESE) 23:53:24 435.000
BEESAT 2 05 Sep 23:52:21 23:56:19 57° 244° (WSW) 00:00:12 435.950
QB50P1 05 Sep 23:52:35 23:56:24 32° 97° (E) 00:00:15 145.935-145.965
AUBIESAT-1 05 Sep 23:58:29 00:02:01 44° 103° (ESE) 00:05:18 437.475
ANTELSAT 06 Sep 00:04:11 00:08:37 58° 285° (WNW) 00:12:53 437.575/2403.000
DANDE 06 Sep 00:08:19 00:11:56 60° 95° (E) 00:16:51 436.750
CUBEBUG 1 06 Sep 00:08:24 00:12:42 69° 259° (W) 00:17:02 437.445
M-CUBED/EXP-1 PRIME 06 Sep 00:09:26 00:13:10 84° 106° (ESE) 00:16:37 437.505
VERMONT LUNAR 06 Sep 00:22:21 00:24:40 20° 147° (SSE) 00:27:01 437.305
TISAT 1 06 Sep 00:23:16 00:26:42 25° 71° (ENE) 00:30:14 437.305
PCSat 06 Sep 00:25:15 00:30:07 37° 110° (ESE) 00:35:06 145.827
AISAT 06 Sep 00:26:41 00:30:20 24° 265° (W) 00:33:55 437.250
Cosmos 2504 06 Sep 00:30:18 00:37:56 39° 286° (WNW) 00:45:47 435.465 / 435.565
BUGSAT 1 06 Sep 00:34:04 00:38:17 59° 100° (E) 00:42:29 437.445
RS-15 06 Sep 00:34:05 00:45:45 58° 54° (NE) 00:57:49 29.354- 29.394
ESTCUBE 1 06 Sep 00:34:35 00:38:28 28° 264° (W) 00:42:18 437.505/2401.250
50 SAT 06 Sep 00:37:34 00:39:35 13° 268° (W) 00:41:23 437.505
SO-50 06 Sep 00:39:46 00:44:22 46° 304° (NW) 00:49:06 436.795
CUSAT 1 06 Sep 00:40:35 00:44:30 33° 289° (WNW) 00:49:33 437.405
DUCHIFAT 1 06 Sep 00:52:09 00:56:17 49° 286° (WNW) 01:00:23 145.980
VELOX 1 06 Sep 00:55:04 00:57:07 13° 269° (W) 00:58:55 145.980
UNISAT 6 06 Sep 00:56:25 00:59:14 16° 292° (WNW) 01:01:50 437.425
POLYITAN 1 06 Sep 00:56:53 01:00:56 40° 286° (WNW) 01:04:55 437.675
POPSAT HIP 1 06 Sep 00:57:06 01:01:10 41° 286° (WNW) 01:05:09 437.405
AIST 2 06 Sep 01:08:11 01:12:11 46° 245° (WSW) 01:16:05 435.215
SWISSCUBE 06 Sep 01:08:26 01:11:12 16° 67° (ENE) 01:14:08 437.505
NANOSAT C BR1 06 Sep 01:12:15 01:15:56 28° 288° (WNW) 01:19:32 145.865
QB50P2 06 Sep 01:16:05 01:19:36 24° 289° (WNW) 01:23:01 145.880/145.840
SPROUT 06 Sep 01:17:32 01:21:31 37° 262° (W) 01:25:31 437.525
Oscar 19 06 Sep 01:26:10 01:28:27 13° 90° (E) 01:31:02 437.125/150
QB50P1 06 Sep 01:29:02 01:32:03 18° 290° (WNW) 01:34:55 145.935-145.965
ITUPSAT 1 06 Sep 01:48:06 01:52:27 37° 72° (ENE) 01:56:52 437.325
GONETS M04 06 Sep 01:51:01 01:58:11 31° 86° (E) 02:05:38
VERMONT LUNAR 06 Sep 01:57:53 02:00:52 63° 340° (NNW) 02:03:51 437.305
TISAT 1 06 Sep 01:59:06 02:02:26 22° 266° (W) 02:05:40 437.305
PCSat 06 Sep 02:09:02 02:13:38 27° 306° (NW) 02:18:10 145.827
BUGSAT 1 06 Sep 02:12:18 02:13:17 10° 293° (WNW) 02:14:01 437.445
BEESAT 06 Sep 02:17:01 02:21:47 80° 76° (ENE) 02:26:34 436.000
Cosmos 2499 06 Sep 02:36:06 02:39:35 14° 80° (E) 02:43:51 435.465 / 435.565
ITAMSAT 1 06 Sep 02:37:13 02:40:14 16° 92° (E) 02:43:30 435.822/435.867
JAS-2 06 Sep 02:40:38 02:41:50 11° 83° (E) 02:43:30 435.910
SWISSCUBE 06 Sep 02:44:07 02:48:42 46° 261° (W) 02:53:17 437.505
RS-15 06 Sep 02:47:08 02:57:59 40° 252° (WSW) 03:08:43 29.354- 29.394
Gurwin Techsat 1B 06 Sep 02:52:10 02:56:46 30° 96° (E) 03:01:25 435.225
PHONESAT 2.4 06 Sep 02:56:03 02:59:06 30° 149° (SSE) 03:02:11 2401.200-2431.200
STARS 06 Sep 02:58:26 03:01:25 19° 69° (ENE) 03:04:33 437.465
Oscar 19 06 Sep 03:03:10 03:08:17 60° 286° (WNW) 03:13:22 437.125/150
ITUPSAT 1 06 Sep 03:27:04 03:30:30 19° 267° (W) 03:33:45 437.325
KKS-1 06 Sep 03:30:23 03:34:49 77° 76° (ENE) 03:39:18 437.445
VERMONT LUNAR 06 Sep 03:34:55 03:37:33 27° 356° (N) 03:40:10 437.305
GONETS M04 06 Sep 03:46:24 03:54:45 49° 283° (WNW) 04:03:05
O/OREOS (USA 219) 06 Sep 03:51:13 03:55:10 28° 63° (ENE) 03:59:09 437.305
AO-7 06 Sep 03:56:53 04:02:49 22° 93° (E) 04:09:07 29.400- 29.500
ITAMSAT 1 06 Sep 04:15:04 04:20:05 51° 287° (WNW) 04:25:05 435.822/435.867
JAS-2 06 Sep 04:21:32 04:28:11 85° 283° (WNW) 04:33:58 435.910
Cosmos 2499 06 Sep 04:23:03 04:31:34 83° 95° (E) 04:40:31 435.465 / 435.565
MOZHAYETS 4 06 Sep 04:25:36 04:29:53 40° 73° (ENE) 04:34:12
Gurwin Techsat 1B 06 Sep 04:32:08 04:36:41 29° 290° (WNW) 04:41:07 435.225
PHONESAT 2.4 06 Sep 04:33:31 04:36:53 55° 343° (NNW) 04:40:15 2401.200-2431.200
STARS 06 Sep 04:33:36 04:37:38 34° 263° (W) 04:41:39 437.465
HORYU 2 06 Sep 04:37:32 04:41:26 30° 97° (E) 04:45:22 437.375
VERMONT LUNAR 06 Sep 05:11:31 05:14:19 37° 13° (NNE) 05:17:07 437.305
O/OREOS (USA 219) 06 Sep 05:30:48 05:34:29 23° 257° (WSW) 05:38:00 437.305
